Dickinson, ND

9:31 AM MDT on July 20, 2017 (GMT -0600)
Dickinson Municipal

Weather History for KDIK - August, 2013

Change the Weather History Date:

Thursday, August 1, 2013

  Actual Average Record
Temperature  
Mean Temperature 65 °F 71 °F  
Max Temperature 81 °F 86 °F 110 °F (1900)
Min Temperature 48 °F 56 °F 38 °F (1948)
Degree Days  
Heating Degree Days 0 1  
Month to date heating degree days 0 1  
Since 1 June heating degree days 156 172  
Since 1 July heating degree days 32 35  
Cooling Degree Days 0 6  
Month to date cooling degree days 0 6  
Year to date cooling degree days 143 235  
Since 1 June cooling degree days 134 225  
Growing Degree Days 14 (Base 50)    
Moisture  
Dew Point 48 °F    
Average Humidity 59    
Maximum Humidity 86    
Minimum Humidity 32    
Precipitation  
Precipitation T in 0.06 in 1.20 in (1903)
Month to date precipitation T 0.06  
Year to date precipitation 11.50 10.81  
Sea Level Pressure  
Sea Level Pressure 30.03 in    
Wind  
Wind Speed 5 mph (East)    
Max Wind Speed 12 mph    
Max Gust Speed 17 mph    
Visibility 10 miles    
Events      
T = Trace of Precipitation, MM = Missing Value Source: NWS Daily Summary

Daily Weather History Graph

Daily Weather History Graph

Search for Another Location

Airport or City:

Trip Planner

Search our weather history database for the weather conditions in past years. The results will help you decide how hot, cold, wet, or windy it might be!

Date:

Astronomy

Aug. 01, 2013 Rise Set
Actual Time 5:31 AM MDT 8:22 PM MDT
Civil Twilight 4:56 AM MDT 8:57 PM MDT
Nautical Twilight 4:11 AM MDT 9:42 PM MDT
Astronomical Twilight 3:17 AM MDT 10:35 PM MDT
Moon 1:07 AM MDT (8/1) 4:35 PM MDT (8/1)
Length of Visible Light 16h 01m
Length of Day
14h 51m
Waning Crescent, 23% of the Moon is Illuminated
Aug 1
Waning Crescent
Aug 6
New
Aug 14
First Quarter
Aug 20
Full
Aug 28
Last Quarter

Hourly Weather History & Observations

Time (MDT) Temp. Dew Point Humidity Pressure Visibility Wind Dir Wind Speed Gust Speed Precip Events Conditions
12:56 AM 53.1 °F 45.0 °F 74% 30.11 in 10.0 mi East 3.5 mph - N/A   Clear
1:56 AM 48.9 °F 44.1 °F 83% 30.09 in 10.0 mi South 3.5 mph - N/A   Clear
2:56 AM 48.0 °F 44.1 °F 86% 30.09 in 10.0 mi South 4.6 mph - N/A   Clear
3:56 AM 48.9 °F 45.0 °F 86% 30.08 in 10.0 mi Calm Calm - N/A   Clear
4:56 AM 48.9 °F 44.1 °F 83% 30.08 in 10.0 mi SSW 3.5 mph - N/A   Clear
5:06 AM 50.0 °F 44.6 °F 82% 30.10 in 10.0 mi South 4.6 mph - N/A   Partly Cloudy
5:56 AM 51.1 °F 45.0 °F 80% 30.07 in 10.0 mi South 3.5 mph - N/A   Clear
6:56 AM 55.0 °F 50.0 °F 83% 30.07 in 10.0 mi Calm Calm - N/A   Clear
7:56 AM 62.1 °F 52.0 °F 70% 30.06 in 10.0 mi SSW 3.5 mph - N/A   Scattered Clouds
8:56 AM 68.0 °F 48.9 °F 50% 30.05 in 10.0 mi Calm Calm - N/A   Clear
9:56 AM 72.0 °F 46.0 °F 40% 30.05 in 10.0 mi ESE 3.5 mph - N/A   Partly Cloudy
10:56 AM 75.0 °F 44.1 °F 33% 30.04 in 10.0 mi Variable 3.5 mph - N/A   Partly Cloudy
11:56 AM 73.9 °F 46.0 °F 37% 30.03 in 10.0 mi ENE 3.5 mph - N/A   Partly Cloudy
12:56 PM 79.0 °F 46.0 °F 31% 30.01 in 10.0 mi SE 4.6 mph - 0.00 in   Clear
1:56 PM 78.1 °F 46.9 °F 33% 30.00 in 10.0 mi East 5.8 mph - N/A   Clear
2:56 PM 78.1 °F 46.9 °F 33% 29.99 in 10.0 mi ENE 6.9 mph - N/A   Partly Cloudy
3:56 PM 78.1 °F 48.0 °F 35% 29.97 in 10.0 mi NE 6.9 mph - N/A   Clear
4:56 PM 77.0 °F 48.9 °F 37% 29.99 in 10.0 mi ENE 8.1 mph - N/A   Scattered Clouds
5:56 PM 77.0 °F 52.0 °F 42% 29.97 in 10.0 mi ENE 10.4 mph - N/A   Clear
6:56 PM 73.9 °F 52.0 °F 46% 29.96 in 10.0 mi ENE 5.8 mph - N/A   Clear
7:56 PM 64.9 °F 53.1 °F 65% 29.96 in 10.0 mi ENE 6.9 mph - N/A   Clear
8:56 PM 63.0 °F 52.0 °F 67% 29.96 in 10.0 mi ENE 6.9 mph - N/A   Clear
9:56 PM 60.1 °F 52.0 °F 75% 29.97 in 10.0 mi East 4.6 mph - N/A   Overcast
10:56 PM 61.0 °F 51.1 °F 70% 29.96 in 10.0 mi ENE 8.1 mph - N/A   Overcast
11:56 PM 62.1 °F 52.0 °F 70% 29.97 in 10.0 mi East 9.2 mph - N/A   Mostly Cloudy